This is the latest recevied weather packets stored in our database for station/object KB3GVC-13. If no packets are shown the sender has not sent any weather packets the latest 10 day(s).
| Time | Temp. | Humidity | Pressure | Rain* | Wind** | Luminosity | Snow |
|---|---|---|---|---|---|---|---|
| 1777177838 | 6.67° C | 99% | 1016.7 hPa | 3.05 mm | - | - | - |
| 1777177535 | 6.67° C | 99% | 1016.6 hPa | 3.05 mm | - | - | - |
| 1777177230 | 6.67° C | 99% | 1016.5 hPa | 4.32 mm | - | - | - |
| 1777176927 | 6.67° C | 99% | 1016.6 hPa | 4.83 mm | - | - | - |
| 1777176623 | 6.67° C | 99% | 1016.6 hPa | 3.05 mm | - | - | - |
| 1777176320 | 6.67° C | 99% | 1016.7 hPa | 3.05 mm | - | - | - |
| 1777176017 | 6.67° C | 99% | 1016.7 hPa | 3.05 mm | - | - | - |
| 1777175715 | 6.67° C | 99% | 1016.5 hPa | 3.05 mm | - | - | - |
| 1777175410 | 6.67° C | 99% | 1016.7 hPa | 4.83 mm | - | - | - |
| 1777175104 | 6.67° C | 99% | 1016.6 hPa | 3.05 mm | - | - | - |
| 1777174802 | 7.22° C | 99% | 1016.6 hPa | 1.78 mm | - | - | - |
| 1777174497 | 7.22° C | 99% | 1016.6 hPa | 0 mm | - | - | - |
| 1777174196 | 7.22° C | 99% | 1016.6 hPa | 1.27 mm | - | - | - |
| 1777173893 | 7.22° C | 99% | 1016.4 hPa | 1.27 mm | - | - | - |
| 1777173589 | 7.22° C | 99% | 1016.3 hPa | 0 mm | - | - | - |
| 1777173284 | 7.22° C | 99% | 1016.3 hPa | 0 mm | - | - | - |
| 1777172980 | 7.22° C | 99% | 1016.4 hPa | 1.78 mm | - | - | - |
| 1777172678 | 7.22° C | 99% | 1016.2 hPa | 1.78 mm | - | - | - |
| 1777172373 | 7.22° C | 99% | 1016.4 hPa | 0 mm | - | - | - |
| 1777172068 | 7.22° C | 99% | 1016.3 hPa | 0 mm | - | - | - |
| 1777171766 | 6.67° C | 99% | 1016.1 hPa | 0 mm | - | - | - |
| 1777171461 | 7.22° C | 99% | 1016.1 hPa | 0 mm | - | - | - |
| 1777171156 | 7.22° C | 99% | 1016.3 hPa | 0 mm | - | - | - |
| 1777170856 | 7.22° C | 99% | 1016.4 hPa | 0 mm | - | - | - |
| 1777170552 | 7.22° C | 99% | 1016.4 hPa | 0 mm | - | - | - |
* Rain latest hour (hover to see other rain measurements)
** Current wind speed in m/s (hover to see current wind gust speed)